Weather History for Hanford, WA

Change the Weather History Date:

Wednesday, February 6, 2013

  Actual Average Record
Temperature  
Mean Temperature 44 °F -  
Max Temperature 52 °F 43 °F 52 °F (2013)
Min Temperature 37 °F 27 °F 21 °F (2012)
Degree Days  
Heating Degree Days 20    
Moisture  
Dew Point 32 °F    
Average Humidity 60    
Maximum Humidity 78    
Minimum Humidity 43    
Precipitation  
Precipitation 0.00 in - - ()
Sea Level Pressure  
Sea Level Pressure 30.00 in    
Wind  
Wind Speed 12 mph (SW)    
Max Wind Speed 20 mph    
Max Gust Speed 26 mph    
Visibility 15 miles    
Events      
Averages and records for this station are not official NWS values.
T = Trace of Precipitation, MM = Missing Value Source: NWS Daily Summary

Daily Weather History Graph

Daily Weather History Graph

Search for Another Location

Airport:

Trip Planner

Search our weather history database for the weather conditions in past years. The results will help you decide how hot, cold, wet, or windy it might be!

Date:

Astronomy

Feb. 06, 2013 Rise Set
Actual Time 7:15 AM PST 5:10 PM PST
Civil Twilight 6:43 AM PST 5:42 PM PST
Nautical Twilight 6:07 AM PST 6:18 PM PST
Astronomical Twilight 5:32 AM PST 6:53 PM PST
Moon 4:10 AM PST (2/6) 1:27 PM PST (2/6)
Length of Visible Light 10h 59m
Length of Day
9h 55m
Waning Crescent, 16% of the Moon is Illuminated
Feb 6
Waning Crescent
Feb 9
New
Feb 17
First Quarter
Feb 25
Full
Mar 4
Last Quarter

Hourly Weather History & Observations

Time (PST) Temp. Windchill Dew Point Humidity Pressure Visibility Wind Dir Wind Speed Gust Speed Precip Events Conditions
12:50 AM 39.9 °F 32.5 °F 31.6 °F 72% 29.95 in 15.0 mi WSW 12.7 mph - N/A   Scattered Clouds
1:50 AM 43.7 °F 38.6 °F 35.2 °F 72% 29.96 in 15.0 mi WSW 9.2 mph - N/A   Overcast
2:50 AM 43.9 °F 37.2 °F 32.9 °F 65% 29.98 in 15.0 mi SW 13.8 mph - N/A   Overcast
3:50 AM 43.7 °F 36.3 °F 33.6 °F 68% 29.97 in 15.0 mi SW 16.1 mph - N/A   Mostly Cloudy
4:50 AM 42.3 °F 35.1 °F 32.4 °F 68% 29.99 in 15.0 mi SW 13.8 mph - N/A   Partly Cloudy
5:50 AM 37.9 °F 33.5 °F 30.6 °F 75% 30.00 in 15.0 mi NW 5.8 mph - N/A   Partly Cloudy
6:50 AM 39.4 °F 33.2 °F 32.0 °F 75% 30.01 in 15.0 mi WSW 9.2 mph - N/A   Partly Cloudy
7:50 AM 41.7 °F 36.1 °F 31.3 °F 66% 30.02 in 15.0 mi West 9.2 mph - N/A   Partly Cloudy
8:50 AM 46.0 °F 41.4 °F 31.8 °F 58% 30.03 in 15.0 mi WNW 9.2 mph - N/A   Mostly Cloudy
9:50 AM 48.2 °F - 30.7 °F 51% 30.06 in 15.0 mi SW 12.7 mph - N/A   Mostly Cloudy
10:50 AM 50.2 °F - 31.3 °F 48% 30.06 in 15.0 mi SSW 18.4 mph - N/A   Overcast
11:50 AM 51.6 °F - 29.8 °F 43% 30.06 in 15.0 mi SW 19.6 mph 26.5 mph N/A   Overcast
12:50 PM 51.1 °F - 31.3 °F 47% 30.06 in 15.0 mi SW 17.3 mph - N/A   Overcast
1:50 PM 52.2 °F - 30.7 °F 44% 30.04 in 15.0 mi SW 17.3 mph - N/A   Overcast
2:50 PM 51.3 °F - 30.4 °F 45% 30.04 in 15.0 mi SSW 16.1 mph - N/A   Overcast
3:50 PM 50.7 °F - 30.9 °F 47% 30.00 in 15.0 mi SSW 12.7 mph - N/A   Overcast
4:50 PM 47.5 °F - 30.6 °F 52% 30.00 in 15.0 mi SSW 5.8 mph - N/A   Overcast
5:50 PM 46.9 °F - 31.1 °F 54% 29.99 in 15.0 mi SSE 9.2 mph - N/A   Overcast
6:50 PM 45.7 °F 41.0 °F 31.6 °F 58% 29.99 in 15.0 mi SSE 9.2 mph - N/A   Overcast
10:50 PM 38.5 °F 35.0 °F 31.6 °F 76% 29.92 in 15.0 mi NNW 4.6 mph - N/A   Overcast
11:50 PM 38.3 °F 31.9 °F 32.0 °F 78% 29.91 in 15.0 mi NW 9.2 mph - N/A   Overcast